Regional Weather Roundup
Issued by NWS San Diego, CA

Home | Current Version | Previous Version | Text Only | Print | Product List | Glossary On
Versions: 1 2 3 4 5 6 7 8 9 10 11 12 13 14 15 16 17 18 19 20 21 22 23 24 25 26 27 28 29 30 31 32 33 34 35 36 37 38 39 40 41 42 43 44 45 46 47 48
000
ASUS46 KSGX 280911
RWRSGX

SAN DIEGO HOURLY WEATHER ROUNDUP
NATIONAL WEATHER SERVICE SAN DIEGO CA
200 AM PDT SAT MAR 28 2015

NOTE: "FAIR" INDICATES FEW OR NO CLOUDS BELOW 12,000 FEET WITH NO
SIGNIFICANT WEATHER AND/OR OBSTRUCTIONS TO VISIBILITY.

CAZ042-043-060-061-PZZ750-775-281000-

GREATER SAN DIEGO AREA

CITY           SKY/WX    TMP DP  RH WIND       PRES   REMARKS
LINDBERGH FLD  CLOUDY    63  59  88 CALM      30.08F FOG
POINT LOMA       N/A     60  58  94 NW2         N/A
CHULA VISTA      N/A     62  61  97 CALM      30.00F
IMPERIAL BEACH CLOUDY    62  62 100 CALM      30.08F
BROWN FIELD    FOG       60  59  96 CALM      30.07F VSB<1/4
MIRAMAR MCAS   FOG       59  56  89 CALM      30.07F VSB 1/2
MONTGOMERY FLD FOG       61  60  97 N3        30.07F VSB 1/4

$$

NORTH SAN DIEGO COUNTY

CITY           SKY/WX    TMP DP  RH WIND       PRES   REMARKS
CAMP PENDLETON CLOUDY    57  50  77 NE6       30.07S
OCEANSIDE AP   CLOUDY    61  56  83 NE3       30.05F
VISTA            N/A     56  50  81 CALM      30.05S
CARLSBAD       CLOUDY    61  59  93 E3        30.06F FOG
FALLBROOK        N/A     58  58 100 CALM      30.06S
SAN MARCOS       N/A     59  53  80 CALM      30.04S
POWAY            N/A     54  45  71 CALM      30.07F

$$

EAST SAN DIEGO COUNTY

CITY           SKY/WX    TMP DP  RH WIND       PRES   REMARKS
RAMONA         CLEAR     47  38  71 SE3       30.09S
SANTEE LAKES     N/A     55  48  78 CALM      30.07F
LA MESA          N/A     60  58  95 CALM      30.00F
MT. LAGUNA OBS   N/A     59  12  15 NW9       29.82F
CAMPO            N/A     46  32  58 NE3       30.11S

$$

ORANGE COUNTY AND THE LOS ANGELES BASIN

CITY           SKY/WX    TMP DP  RH WIND       PRES   REMARKS
JOHN WAYNE AP  CLEAR     62  55  77 S3        30.06S
LAKE FOREST FR   N/A     61  33  35 CALM      29.93F
SANTA ANA        N/A     62  55  76 CALM      30.01F
HUNTINGTON BCH   N/A     62  60  93 S2        30.07S
LOS ALAMITOS   FAIR      61  61 100 SE7       30.05F
FULLERTON      CLEAR     64  57  78 SE3       30.05F
LONG BEACH     CLEAR     61  54  77 E5        30.05F
L.A. AP        CLEAR     60  56  86 E3        30.05F
L.A. DOWNTOWN  CLEAR     62  56  80 CALM      30.05F

$$

THE INLAND EMPIRE

CITY           SKY/WX    TMP DP  RH WIND       PRES   REMARKS
CORONA         CLEAR     49  41  74 CALM      30.07F
CHINO          CLEAR     60  46  59 CALM      30.08S HAZE
ONTARIO        CLEAR     68  41  37 NE3       30.07S
RIVERSIDE AP   CLEAR     64  42  44 SE3       30.07S
MORENO VALLEY    N/A     64  39  39 CALM      30.07F
HORSETHIEF CYN   N/A     62  28  28 SW3       30.03S
MENIFEE          N/A     58  47  66 CALM      30.12S
HEMET EAST       N/A     64  28  25 CALM      30.05F
FRENCH VALLEY  FAIR      55  41  58 CALM      30.09S
TEMECULA         N/A     59  44  58 CALM      30.05S

$$

SAN BERNARDINO AND RIVERSIDE COUNTY MOUNTAINS

CITY           SKY/WX    TMP DP  RH WIND       PRES   REMARKS
BIG BEAR AP    CLEAR     32  27  80 CALM      30.33F
ANGELUS OAKS     N/A     49  28  43 CALM      30.02S

$$

SOUTHERN DESERT INCLUDING THE COACHELLA VALLEY

CITY           SKY/WX    TMP DP  RH WIND       PRES   REMARKS
PALM SPRINGS   CLEAR     76  34  21 NW6       30.01S
THOUSAND PALMS   N/A     81  29  15 W9        29.96F
THERMAL        CLEAR     62  37  39 CALM      29.94F
BLYTHE         CLEAR     66  32  28 SE3       29.98S
IMPERIAL AP    CLEAR     66  40  38 W6        29.95F
EL CENTRO NAS  CLEAR     69  29  22 W7        29.96S
YUMA AZ        CLEAR     69  37  30 CALM      29.98R

$$

UPPER DESERT

CITY           SKY/WX    TMP DP  RH WIND       PRES   REMARKS
VICTORVILLE AP CLEAR     55  27  33 S7        30.13F
HESPERIA         N/A     58  33  39 W3        30.16F
APPLE VALLEY     N/A     57  32  39 CALM      30.19R
PALMDALE       CLEAR     63  33  32 W8        30.12F
LANCASTER      CLEAR     63  38  39 W10       30.11S
EDWARDS AFB    CLEAR     56  31  38 SW8       30.08S
DAGGETT        CLEAR     67  26  21 NW7       30.07S
29 PALMS N     CLEAR     60  26  27 NE6       30.14S
NEEDLES        CLEAR     69  24  18 NW6       30.01R

$$

REGIONAL REPORTS

CITY           SKY/WX    TMP DP  RH WIND       PRES   REMARKS
SANTA BARBARA  CLEAR     57  54  89 NE3       30.03S
SANDBERG       CLEAR     60  38  43 NW22G29   30.22F
MT. WILSON       N/A     59  28  31 W9          N/A
LAS VEGAS NV   CLEAR     67  24  19 SW9       30.01S
PHOENIX AZ     CLEAR     69  30  23 SE6       30.00S
TIJUANA        FOG       59  57  94 NW5       30.10S VSB 1/8
ENSENADA NW      N/A     61  32  34 E6        30.05R

$$

OFFSHORE ISLANDS

CITY           SKY/WX    TMP DP  RH WIND       PRES   REMARKS
CATALINA ARPT  CLEAR     70  38  31 NW7       30.11F
SAN NICOLAS IS CLEAR    N/A N/A N/A W15       30.06S

$$

MARINE AND OFFSHORE BUOY REPORTS

STATION/POSITION SKY/WX   TEMP    WIND        PRES    SWELL
                          AIR SEA DIR/SP/G            HT/PER/DIR
                          (F)     (DEG/KT/KT) (MB)    (FT/S/D)
TANNER BANKS               59 61  310/ 16/ 17 1018.8R   5/260/15
S CLEMENTE BASIN           59 65  320/  2/  6 1018.0F   5/250/16
SAN NICOLAS IS.               60                N/A     5/270/15
SO. S. ROSA ISLA           56 59  310/ 23/ 27 1017.6F   3/15
W. S. BARBARA CH           54 58  320/ 27/ 31 1017.3F   5/300/11
S. MONICA BASIN            62 63  270/  6/  8 1017.7R   3/200/16
S PEDRO CHANNEL               64                N/A     2/190/14
DANA POINT                    65                N/A     3/190/18
CMP PENDLETON NS              65                N/A     2/220/18
OCEANSIDE OFFSHR              66                N/A     3/200/18
TORREY PINES OTR              66                N/A     3/230/15
MISSION BAY BUOY              67                N/A     3/220/15
SAN DIEGO BAY                 70              1018.9R
POINT LOMA SOUTH              66                N/A     3/210/17

$$




USA.gov is the U.S. government's official web portal to all federal, state and local government web resources and services.